Change the Weather History Date:

Friday, September 20, 2013

  Actual Average Record
Temperature  
Mean Temperature 67 °F 64 °F  
Max Temperature 78 °F 77 °F 92 °F (2010)
Min Temperature 56 °F 51 °F 37 °F (2006)
Degree Days  
Heating Degree Days 0 3  
Month to date heating degree days 14 29  
Since 1 July heating degree days 29 38  
Cooling Degree Days 2 2  
Month to date cooling degree days 153 80  
Year to date cooling degree days 1006 907  
Growing Degree Days 18 (Base 50)    
Moisture  
Dew Point 65 °F    
Average Humidity 83    
Maximum Humidity 93    
Minimum Humidity 72    
Precipitation  
Precipitation 0.37 in 0.09 in 1.60 in (1948)
Month to date precipitation 0.47 2.28  
Year to date precipitation 24.68 29.56  
Sea Level Pressure  
Sea Level Pressure 29.87 in    
Wind  
Wind Speed 7 mph (West)    
Max Wind Speed 14 mph    
Max Gust Speed 22 mph    
Visibility 9 miles    
Events Rain , Thunderstorm    
T = Trace of Precipitation, MM = Missing Value Source: NWS Daily Summary

Daily Weather History Graph

Daily Weather History Graph

Search for Another Location

Airport or City:

Trip Planner

Search our weather history database for the weather conditions in past years. The results will help you decide how hot, cold, wet, or windy it might be!

Date:

Astronomy

Sep. 20, 2013 Rise Set
Actual Time 6:39 AM CDT 6:53 PM CDT
Civil Twilight 6:11 AM CDT 7:20 PM CDT
Nautical Twilight 5:40 AM CDT 7:51 PM CDT
Astronomical Twilight 5:07 AM CDT 8:24 PM CDT
Moon 7:26 PM CDT (9/20) 7:53 AM CDT (9/20)
Length of Visible Light 13h 08m
Length of Day
12h 14m
Full, 98% of the Moon is Illuminated
Sep 20
Full
Sep 26
Last Quarter
Oct 4
New
Oct 11
First Quarter
Oct 18
Full

Hourly Weather History & Observations

Time (CDT) Temp. Dew Point Humidity Pressure Visibility Wind Dir Wind Speed Gust Speed Precip Events Conditions
12:53 AM 77.0 °F 71.1 °F 82% 29.88 in 10.0 mi South 11.5 mph 18.4 mph N/A   Clear
1:53 AM 77.0 °F 70.0 °F 79% 29.87 in 10.0 mi SSW 9.2 mph - N/A Thunderstorm Overcast
2:21 AM 73.4 °F 66.2 °F 78% 29.91 in 10.0 mi NW 11.5 mph 21.9 mph N/A Thunderstorm Overcast
2:32 AM 73.4 °F 66.2 °F 78% 29.91 in 10.0 mi WNW 9.2 mph - 0.00 in Rain Light Rain
2:41 AM 71.6 °F 66.2 °F 83% 29.90 in 10.0 mi WNW 3.5 mph - 0.00 in   Overcast
2:53 AM 72.0 °F 66.9 °F 84% 29.88 in 10.0 mi Calm Calm - 0.00 in Rain Light Rain
3:53 AM 70.0 °F 66.9 °F 90% 29.86 in 10.0 mi SSE 5.8 mph - 0.00 in   Scattered Clouds
4:53 AM 72.0 °F 68.0 °F 87% 29.85 in 10.0 mi SW 11.5 mph - 0.00 in Rain Light Rain
5:53 AM 69.1 °F 66.9 °F 93% 29.88 in 10.0 mi WSW 9.2 mph 16.1 mph 0.08 in Rain Rain
6:53 AM 69.1 °F 66.9 °F 93% 29.88 in 10.0 mi SW 8.1 mph - 0.13 in Rain Light Rain
7:53 AM 68.0 °F 66.9 °F 96% 29.89 in 10.0 mi SW 5.8 mph - 0.02 in   Mostly Cloudy
8:53 AM 69.1 °F 66.9 °F 93% 29.88 in 10.0 mi SSW 5.8 mph - N/A   Mostly Cloudy
9:32 AM 69.8 °F 66.2 °F 88% 29.91 in 10.0 mi WSW 5.8 mph - 0.00 in   Scattered Clouds
9:53 AM 70.0 °F 66.9 °F 90% 29.89 in 10.0 mi WSW 3.5 mph - 0.00 in   Mostly Cloudy
10:53 AM 73.0 °F 66.9 °F 81% 29.89 in 10.0 mi WSW 8.1 mph - N/A   Mostly Cloudy
11:26 AM 75.2 °F 66.2 °F 73% 29.90 in 10.0 mi WSW 8.1 mph - N/A   Mostly Cloudy
11:53 AM 75.0 °F 66.9 °F 76% 29.87 in 10.0 mi WSW 9.2 mph - N/A   Scattered Clouds
12:30 PM 77.0 °F 66.2 °F 69% 29.88 in 10.0 mi WSW 10.4 mph - N/A   Mostly Cloudy
12:53 PM 73.0 °F 66.9 °F 81% 29.87 in 3.0 mi West 15.0 mph 20.7 mph 0.00 in Rain Light Rain
1:21 PM 71.6 °F 69.8 °F 94% 29.88 in 1.5 mi West 6.9 mph - 0.11 in Rain Rain
1:37 PM 69.8 °F 69.8 °F 100% 29.87 in 3.0 mi West 5.8 mph - 0.13 in Rain Light Rain
1:53 PM 71.1 °F 69.1 °F 93% 29.85 in 5.0 mi West 4.6 mph - 0.14 in Rain Light Rain
2:10 PM 71.6 °F 69.8 °F 94% 29.86 in 7.0 mi West 5.8 mph - 0.00 in Rain Light Rain
2:53 PM 72.0 °F 69.1 °F 91% 29.84 in 10.0 mi WSW 6.9 mph - 0.00 in   Mostly Cloudy
3:49 PM 71.6 °F 68.0 °F 88% 29.84 in 10.0 mi SW 4.6 mph - N/A   Overcast
3:53 PM 72.0 °F 68.0 °F 87% 29.83 in 10.0 mi SW 6.9 mph - N/A   Overcast
4:53 PM 72.0 °F 66.9 °F 84% 29.83 in 10.0 mi West 4.6 mph - N/A   Overcast
5:53 PM 71.1 °F 64.9 °F 81% 29.83 in 10.0 mi West 4.6 mph - N/A   Scattered Clouds
6:20 PM 69.8 °F 62.6 °F 78% 29.84 in 10.0 mi West 9.2 mph - N/A   Mostly Cloudy
6:29 PM 69.8 °F 60.8 °F 73% 29.85 in 10.0 mi WNW 8.1 mph - N/A   Mostly Cloudy
6:53 PM 68.0 °F 60.1 °F 76% 29.84 in 10.0 mi WNW 6.9 mph - N/A   Mostly Cloudy
7:53 PM 66.0 °F 57.9 °F 75% 29.85 in 10.0 mi WNW 8.1 mph - N/A   Clear
8:53 PM 63.0 °F 57.0 °F 81% 29.86 in 10.0 mi WNW 5.8 mph - N/A   Clear
9:53 PM 62.1 °F 53.1 °F 72% 29.88 in 10.0 mi NW 8.1 mph - N/A   Clear
10:53 PM 60.1 °F 52.0 °F 75% 29.88 in 10.0 mi NW 5.8 mph - N/A   Clear
11:53 PM 57.9 °F 52.0 °F 81% 29.88 in 10.0 mi NW 4.6 mph - N/A   Clear